Weather reports worldwide

Advertisment
Tarbes/Ossun, France (7621): temperature & dewpoint: 16.03.2019 18:00:00 - 22.03.2019 18:00:00 (CET)Tarbes/Ossun, France (7621): temperature 5cm: 16.03.2019 18:00:00 - 22.03.2019 18:00:00 (CET)Tarbes/Ossun, France (7621): temperature -20cm & temperature -100cm: 16.03.2019 18:00:00 - 22.03.2019 18:00:00 (CET)Tarbes/Ossun, France (7621): wind speed & gusts: 16.03.2019 18:00:00 - 22.03.2019 18:00:00 (CET)Tarbes/Ossun, France (7621): wind direction: 16.03.2019 18:00:00 - 22.03.2019 18:00:00 (CET)Tarbes/Ossun, France (7621): reduced air pressure: 16.03.2019 18:00:00 - 22.03.2019 18:00:00 (CET)Tarbes/Ossun, France (7621): visibility: 16.03.2019 18:00:00 - 22.03.2019 18:00:00 (CET)Tarbes/Ossun, France (7621): sunshine duration: 16.03.2019 18:00:00 - 22.03.2019 18:00:00 (CET)Tarbes/Ossun, France (7621): precipitation: 16.03.2019 18:00:00 - 22.03.2019 18:00:00 (CET)
Date & Time tt [°C] td [°C] tt 5cm [°C] tt -20cm [°C] tt -100cm [°C] ff [km/h] ff [kn] fx [km/h] fx [kn] dd ppp [hPa] vv [km] sd [min] rr [mm]
22.03.2019 18:00:00 16,2 3,3 14,5 10,1 10,0 10 5 16 8 N 1025,9 37 60 0,0
22.03.2019 17:00:00 17,8 1,7 19,4 9,8 10,0 13 7 22 12 N 1025,7 47 60 0,0
22.03.2019 16:00:00 18,0 1,9 23,4 9,6 10,0 8 4 22 12 NE 1026,0 33 60 0,0
22.03.2019 15:00:00 17,8 1,3 - - - 11 6 22 12 N 1026,2 50 - 0,0
22.03.2019 14:00:00 17,3 1,7 22,4 9,2 10,0 11 6 20 11 N 1026,7 38 60 0,0
22.03.2019 13:00:00 16,7 1,9 17,9 9,2 10,0 9 5 22 12 NNW 1027,6 45 60 0,0
22.03.2019 12:00:00 15,9 3,3 14,1 9,1 10,0 10 5 24 13 N 1028,1 30 60 0,0
22.03.2019 11:00:00 15,0 2,2 10,6 9,2 10,0 10 6 21 12 ENE 1028,6 27 60 0,0
22.03.2019 10:00:00 12,5 3,4 7,0 9,2 10,0 7 4 11 6 NNE 1029,0 40 60 0,0
22.03.2019 09:00:00 9,3 2,4 1,9 9,4 10,0 3 2 9 5 S 1029,0 38 60 0,0
22.03.2019 08:00:00 2,7 0,9 1,2 9,5 10,0 4 2 8 4 SSE 1029,8 43 34 0,0
22.03.2019 07:00:00 1,6 -0,3 1,0 9,6 10,0 7 4 11 6 SSE 1029,6 41 0 0,0
22.03.2019 06:00:00 1,0 -0,9 1,1 9,7 10,0 8 4 11 6 S 1029,7 42 0 0,0
22.03.2019 05:00:00 1,7 -0,4 1,3 9,8 10,0 7 4 12 6 S 1029,6 46 0 0,0
22.03.2019 04:00:00 1,2 -0,9 1,5 9,9 10,0 6 3 9 5 S 1029,8 41 0 0,0
22.03.2019 03:00:00 4,4 0,2 2,3 10,0 10,0 9 5 13 7 SSE 1029,3 41 0 0,0
22.03.2019 02:00:00 3,7 0,4 2,1 10,1 10,0 10 6 14 8 S 1029,7 37 0 0,0
22.03.2019 01:00:00 2,5 -0,1 2,5 10,2 10,0 10 5 16 9 S 1030,1 32 0 0,0
22.03.2019 00:00:00 2,3 0,0 2,6 10,2 10,0 6 4 13 7 SSE 1030,3 0,6 0 0,0
21.03.2019 23:00:00 4,6 1,4 3,2 10,3 10,0 7 4 14 7 SSE 1030,0 25 0 0,0
21.03.2019 22:00:00 3,4 0,6 3,4 10,3 10,0 11 6 13 7 S 1030,2 27 0 0,0
21.03.2019 21:00:00 5,6 2,1 4,0 10,2 10,0 9 5 10 6 S 1029,6 40 0 0,0
21.03.2019 20:00:00 10,0 1,4 5,0 10,1 10,0 3 2 11 6 N 1028,4 46 0 0,0
21.03.2019 19:00:00 10,8 2,6 8,4 9,9 10,0 9 5 16 9 N 1028,0 55 52 0,0
21.03.2019 18:00:00 13,4 1,4 12,9 9,7 10,0 13 7 19 10 N 1027,4 46 60 0,0
21.03.2019 17:00:00 14,7 0,9 18,2 9,5 10,0 9 5 23 13 NNW 1027,1 53 60 0,0
21.03.2019 16:00:00 14,7 0,9 21,9 9,3 10,0 10 5 26 14 NNW 1027,3 40 60 0,0
21.03.2019 15:00:00 14,5 1,4 22,5 9,1 10,0 13 7 28 15 NNW 1027,6 46 60 0,0
21.03.2019 14:00:00 13,7 0,3 20,1 9,0 10,0 10 5 23 12 N 1028,3 29 60 0,0
21.03.2019 13:00:00 13,4 1,4 16,4 8,9 10,0 8 4 28 15 N 1029,1 41 60 0,0
21.03.2019 12:00:00 12,6 1,3 12,7 8,9 10,0 11 6 18 10 NNW 1029,4 34 60 0,0
21.03.2019 11:00:00 11,7 1,0 8,9 8,9 10,0 8 5 22 12 N 1029,8 38 60 0,0
21.03.2019 10:00:00 11,3 -2,5 5,6 9,1 10,0 5 3 19 10 SW 1030,1 47 60 0,0
21.03.2019 09:00:00 7,9 -1,1 1,2 9,2 10,0 6 4 18 10 S 1030,8 39 60 0,0
21.03.2019 08:00:00 3,8 -2,6 0,3 9,3 10,1 16 9 21 11 S 1031,3 47 33 0,0
21.03.2019 07:00:00 1,9 -2,8 0,0 9,4 10,0 17 9 24 13 S 1031,3 54 0 0,0
21.03.2019 06:00:00 1,1 -2,8 0,3 9,5 10,0 11 6 17 9 S 1031,2 55 0 0,0
21.03.2019 05:00:00 1,9 -2,6 0,2 9,6 10,0 11 6 20 11 S 1031,2 54 0 0,0
21.03.2019 04:00:00 0,3 -2,7 0,5 9,8 10,0 9 5 12 6 SSW 1031,3 51 0 0,0
21.03.2019 03:00:00 3,3 -2,7 1,3 9,8 10,0 5 3 14 8 SSW 1031,3 54 0 0,0
21.03.2019 02:00:00 3,8 -2,0 1,3 10,0 10,0 8 4 18 10 SSE 1031,6 51 0 0,0
21.03.2019 01:00:00 3,2 -1,8 1,5 10,1 10,0 9 5 16 9 S 1032,1 51 0 0,0
21.03.2019 00:00:00 3,6 -1,6 2,1 10,1 10,0 8 4 14 7 S 1032,7 50 0 0,0
20.03.2019 23:00:00 3,2 -1,0 2,3 10,1 10,0 10 5 15 8 SSE 1032,8 36 0 0,0
20.03.2019 22:00:00 3,4 -0,8 2,5 10,2 10,0 13 7 16 9 S 1033,0 41 0 0,0
20.03.2019 21:00:00 3,5 -0,3 2,9 10,1 10,0 12 6 15 8 S 1032,9 37 0 0,0
20.03.2019 20:00:00 6,7 0,4 4,1 10,0 10,0 5 3 10 5 SSW 1032,0 48 0 0,0
20.03.2019 19:00:00 10,8 -3,0 7,1 9,9 10,1 5 3 18 10 E 1031,0 60 50 0,0
20.03.2019 18:00:00 11,4 -2,8 11,3 9,7 10,0 10 5 23 12 N 1030,6 52 60 0,0
20.03.2019 17:00:00 12,0 -1,2 15,4 9,5 10,0 13 7 23 13 NNE 1030,4 32 60 0,0
20.03.2019 16:00:00 11,9 -2,7 19,3 9,3 10,0 14 7 26 14 NNE 1030,4 55 60 0,0
20.03.2019 15:00:00 12,2 -1,0 20,2 9,2 10,0 10 5 22 12 N 1030,5 41 60 0,0
20.03.2019 14:00:00 11,5 -1,3 18,3 9,1 10,0 12 7 22 12 N 1031,4 52 60 0,0
20.03.2019 13:00:00 10,8 0,2 15,1 9,0 10,0 9 5 22 12 N 1032,2 41 60 0,0
20.03.2019 12:00:00 10,3 -0,5 11,0 9,0 10,0 8 5 21 12 NNE 1032,6 33 60 0,0
20.03.2019 11:00:00 9,6 -0,3 9,0 9,0 10,0 14 8 24 13 NNE 1032,9 38 60 0,0
20.03.2019 10:00:00 8,2 3,6 4,5 9,1 10,0 5 3 11 6 NNE 1032,8 48 60 0,0
20.03.2019 09:00:00 5,1 4,1 1,6 9,2 10,0 2 1 9 5 NW 1032,9 42 60 0,0
20.03.2019 08:00:00 1,4 1,1 1,2 9,4 10,0 6 4 10 6 SSE 1032,9 26 33 0,0
20.03.2019 07:00:00 -0,2 -0,6 1,1 9,5 10,1 7 4 12 6 S 1032,8 26 0 0,0
20.03.2019 06:00:00 1,0 0,7 1,6 9,5 10,0 8 5 11 6 S 1032,5 31 0 0,0
20.03.2019 05:00:00 0,9 0,5 2,0 9,6 10,1 6 4 9 5 S 1032,5 28 0 0,0
20.03.2019 04:00:00 1,9 1,5 2,4 9,7 10,0 8 4 13 7 SSE 1032,0 32 0 0,0
20.03.2019 03:00:00 3,3 2,7 - - - 9 5 13 7 SSE 1032,3 20 - 0,0
20.03.2019 02:00:00 3,7 3,1 3,5 9,8 10,1 8 4 11 6 SSE 1032,4 25 0 0,0
20.03.2019 01:00:00 5,4 4,0 5,1 9,8 10,1 9 5 12 7 S 1032,3 25 0 0,0
20.03.2019 00:00:00 4,9 3,7 5,1 9,9 10,0 8 4 11 6 S 1032,6 32 0 0,0
19.03.2019 23:00:00 5,2 3,8 5,5 9,9 10,0 9 5 13 7 S 1032,3 30 0 0,0
19.03.2019 22:00:00 5,8 4,4 6,2 9,9 10,0 8 4 12 7 S 1031,6 26 0 0,0
19.03.2019 21:00:00 6,2 4,5 6,9 9,9 10,0 6 4 9 5 SSW 1031,1 35 0 0,0
19.03.2019 20:00:00 7,1 4,6 7,4 9,9 10,1 5 3 8 4 SW 1030,7 59 0 0,0
19.03.2019 19:00:00 7,8 2,7 8,4 9,8 10,0 0 0 10 5 N 1030,1 60 1 0,0
19.03.2019 18:00:00 8,3 3,3 9,0 9,8 10,0 8 5 16 8 NNW 1029,3 60 0 0,0
19.03.2019 17:00:00 8,5 3,7 9,5 9,7 10,0 14 8 26 14 NNW 1029,1 60 3 0,0
19.03.2019 16:00:00 8,5 4,5 8,9 9,6 10,1 20 11 29 15 NNW 1028,7 59 0 0,0
19.03.2019 15:00:00 9,1 5,1 10,1 9,6 10,1 16 9 28 15 N 1028,2 57 5 0,0
19.03.2019 14:00:00 8,8 4,8 10,1 9,5 10,0 11 6 26 14 NNW 1028,4 55 6 0,0
19.03.2019 13:00:00 7,2 5,5 10,1 9,5 10,0 16 9 26 14 N 1029,1 15 14 0,2
19.03.2019 12:00:00 6,3 5,4 7,5 9,5 10,0 9 5 29 16 NE 1029,0 6 0 1,0
19.03.2019 11:00:00 7,5 4,1 9,0 9,5 10,0 8 5 16 8 WNW 1028,5 20 0 0,0
19.03.2019 10:00:00 6,7 4,4 7,1 9,6 10,0 8 4 16 9 W 1028,3 60 0 0,0
19.03.2019 09:00:00 5,8 4,1 5,7 9,7 10,0 9 5 16 9 WSW 1028,2 60 12 0,0
19.03.2019 08:00:00 4,7 3,7 4,7 9,7 10,0 6 4 16 8 SW 1028,0 60 0 0,0
19.03.2019 07:00:00 4,1 3,2 4,7 9,8 10,0 7 4 14 8 SW 1027,7 60 0 0,0
19.03.2019 06:00:00 4,0 3,0 4,2 9,9 10,0 11 6 18 10 SSW 1027,4 50 0 0,0
19.03.2019 05:00:00 3,9 2,9 4,2 9,9 10,0 12 6 22 12 WSW 1027,5 19 0 0,4
19.03.2019 04:00:00 4,2 3,2 4,2 10,0 10,0 10 5 25 14 WSW 1027,4 17 0 1,0
19.03.2019 03:00:00 4,3 3,3 4,3 10,1 10,0 18 10 26 14 SW 1027,7 12 0 1,0
19.03.2019 02:00:00 4,6 3,1 4,5 10,1 10,0 19 10 32 17 WSW 1028,2 14 0 1,4
19.03.2019 01:00:00 5,6 3,8 5,0 10,1 10,0 20 11 29 16 W 1028,0 12 0 0,2
19.03.2019 00:00:00 6,9 3,1 5,8 10,2 10,0 13 7 21 12 WSW 1027,9 47 0 0,0
18.03.2019 23:00:00 6,9 3,1 5,8 10,3 10,0 12 6 19 11 WSW 1028,7 47 0 0,0
18.03.2019 22:00:00 6,9 2,6 5,2 10,3 10,0 10 5 24 13 WSW 1028,9 52 0 0,0
18.03.2019 21:00:00 7,5 2,2 5,9 10,3 10,1 16 9 32 17 W 1028,4 56 0 0,0
18.03.2019 20:00:00 7,9 3,5 6,6 10,2 10,0 17 9 35 19 W 1028,1 16 0 0,0
18.03.2019 19:00:00 8,2 2,6 7,2 10,1 10,0 18 10 41 22 W 1027,7 60 0 0,0
18.03.2019 18:00:00 10,1 1,7 8,7 10,0 10,0 17 9 32 17 WNW 1026,8 60 26 0,0
18.03.2019 17:00:00 12,0 -0,2 14,7 9,8 10,0 16 9 28 15 W 1026,4 47 60 0,0
18.03.2019 16:00:00 11,7 1,6 10,6 9,7 10,0 14 8 30 16 NW 1026,6 50 32 0,0
18.03.2019 15:00:00 10,9 1,1 11,4 9,6 10,0 6 3 26 14 NNW 1027,0 47 28 0,0
18.03.2019 14:00:00 10,6 0,6 10,2 9,5 10,0 11 6 31 17 WNW 1027,5 44 28 0,0
18.03.2019 13:00:00 10,8 1,3 11,1 9,4 10,0 14 8 31 17 W 1028,0 55 49 0,0
18.03.2019 12:00:00 10,1 1,2 9,3 9,5 10,0 11 6 23 12 WNW 1028,6 31 41 0,0
18.03.2019 11:00:00 9,2 0,4 8,5 9,5 10,0 10 5 25 13 W 1028,8 19 46 0,0
18.03.2019 10:00:00 8,7 3,5 6,5 9,6 10,0 10 6 19 10 W 1028,4 55 60 0,0
18.03.2019 09:00:00 6,9 3,9 2,6 9,6 10,0 8 4 15 8 WSW 1028,1 40 57 0,0
18.03.2019 08:00:00 2,4 2,0 2,2 9,7 10,0 10 5 12 7 S 1028,3 51 32 0,0
18.03.2019 07:00:00 2,2 1,2 2,4 9,8 10,0 8 4 16 9 S 1028,1 57 0 0,0
18.03.2019 06:00:00 4,7 1,9 3,7 9,9 10,0 11 6 21 11 WSW 1027,1 37 0 0,0
18.03.2019 05:00:00 4,4 2,4 4,0 10,0 10,0 12 7 27 14 SW 1026,9 59 0 0,0
18.03.2019 04:00:00 4,7 2,2 3,7 10,1 10,0 13 7 21 11 W 1026,6 19 0 0,0
18.03.2019 03:00:00 3,4 1,9 3,3 10,2 10,0 8 4 16 9 SW 1026,8 58 0 0,0
18.03.2019 02:00:00 3,3 2,0 - - - 13 7 16 9 SSW 1027,1 55 - 0,0
18.03.2019 01:00:00 3,5 2,8 3,4 10,4 10,0 12 7 18 10 S 1027,5 56 0 0,0
18.03.2019 00:00:00 3,4 2,5 3,5 10,4 10,0 12 6 18 10 S 1027,9 60 0 0,0
17.03.2019 23:00:00 4,8 3,3 - - - 13 7 31 17 SW 1027,3 50 - 0,6
17.03.2019 22:00:00 5,3 2,8 3,8 10,6 10,0 13 7 24 13 WSW 1026,8 50 0 0,0
17.03.2019 21:00:00 5,2 3,4 4,1 10,6 10,0 14 8 39 21 WSW 1026,3 55 0 0,2
17.03.2019 20:00:00 6,1 3,3 5,2 10,6 10,0 28 15 44 24 WNW 1025,5 3,8 0 0,4
17.03.2019 19:00:00 7,4 5,0 6,1 10,6 10,0 16 9 34 18 WSW 1024,5 40 1 0,0
17.03.2019 18:00:00 7,3 5,4 7,1 10,6 10,0 20 11 38 20 WSW 1024,1 7 0 0,8
17.03.2019 17:00:00 8,2 5,5 8,8 10,5 9,9 27 15 42 23 WSW 1023,3 20 20 0,0
17.03.2019 16:00:00 8,4 7,0 9,4 10,5 10,0 19 10 34 18 W 1022,9 5 1 0,2
17.03.2019 15:00:00 8,2 7,0 8,9 10,5 10,0 22 12 48 26 W 1022,7 9 0 0,4
17.03.2019 14:00:00 8,2 7,3 9,6 10,4 9,9 28 15 46 25 WNW 1022,2 6 0 0,4
17.03.2019 13:00:00 11,2 7,7 11,7 10,3 9,9 29 16 51 27 W 1020,7 17 7 0,0
17.03.2019 12:00:00 13,0 7,4 13,6 10,3 9,9 33 18 46 25 WNW 1019,7 47 26 0,0
17.03.2019 11:00:00 13,5 7,9 12,4 10,3 9,9 18 10 29 16 W 1019,2 28 38 0,0
17.03.2019 10:00:00 10,3 8,2 9,5 10,4 9,9 6 3 21 11 S 1019,6 20 0 0,0
17.03.2019 09:00:00 9,0 8,1 8,7 10,4 10,0 14 7 20 11 SSW 1019,3 15 0 0,0
17.03.2019 08:00:00 8,6 8,0 8,5 10,4 9,9 10 6 21 11 W 1018,9 4,2 0 0,0
17.03.2019 07:00:00 8,6 8,0 8,5 10,5 9,9 12 6 26 14 W 1018,1 4,2 0 0,0
17.03.2019 06:00:00 8,9 7,8 8,6 10,5 10,0 13 7 26 14 W 1017,5 4,8 0 0,0
17.03.2019 05:00:00 9,0 8,1 8,7 10,6 10,0 16 8 29 15 WNW 1016,8 5 0 0,0
17.03.2019 04:00:00 9,2 8,1 8,6 10,7 10,0 17 9 26 14 W 1015,8 9 0 0,0
17.03.2019 03:00:00 9,6 8,0 7,6 10,7 9,9 11 6 27 15 W 1016,0 15 0 0,0
17.03.2019 02:00:00 9,6 7,4 7,6 10,8 10,0 12 6 48 26 WNW 1016,4 25 0 0,0
17.03.2019 01:00:00 11,3 7,6 5,9 10,8 10,0 28 15 49 27 W 1015,1 33 0 0,0
17.03.2019 00:00:00 9,4 3,4 6,5 10,9 10,0 12 6 25 14 S 1014,7 41 0 0,0
16.03.2019 23:00:00 9,2 4,2 6,7 10,9 10,0 9 5 28 15 S 1014,9 40 0 0,0
16.03.2019 22:00:00 10,0 5,8 6,6 10,8 10,0 11 6 16 9 SSE 1015,8 35 0 0,0
16.03.2019 21:00:00 9,9 5,5 7,1 10,8 9,9 8 4 13 7 S 1016,1 39 0 0,0
16.03.2019 20:00:00 12,2 6,9 8,1 10,6 10,0 8 4 14 7 SSW 1015,5 59 0 0,0
16.03.2019 19:00:00 17,1 6,9 10,6 10,4 9,9 6 3 14 8 NNW 1014,4 38 46 0,0
16.03.2019 18:00:00 19,9 8,2 16,5 10,2 9,9 11 6 16 9 N 1014,1 59 60 0,0

tt = temperature
td = dewpoint
tt 5cm = temperature 5cm
tt -20cm = temperature -20cm
tt -100cm = temperature -100cm
ff = wind speed
fx = gusts
dd = wind direction
ppp = reduced air pressure
vv = visibility
sd = sunshine duration
rr = precipitation

Next stations